Location: Lane
(33.5226°N, 79.8788°W)
Time: 07:50:50
(UTC+00:00)

Tiros 1 despin weight - Pass Details

Date: 12 October 2022
Orbit: 590 x 637 km, 48.2° (Epoch: 28 November)

Event Time Altitude Azimuth Distance (km) Brightness Sun altitude
Rises 22:19:39 0° 315° (NW) 2,853 ? 5.3°
Reaches altitude 10° 22:22:18 10° 329° (NNW) 1,957 ? 4.7°
Maximum altitude 22:25:59 24° 25° (NNE) 1,268 ? 4.0°
Drops below altitude 10° 22:29:42 10° 80° (E) 1,979 ? 3.2°
Sets 22:32:23 0° 94° (E) 2,892 ? 2.7°
